DW0148 Weather Reports


time (UTC)temp
C
wind
direction
speed
KPH
gust
KPH
rain 1hr
cm
rain 24hr
cm
rain mn
cm
humidity
%
barometer
mb
20260510092744 11 73 0.0 0.0 0.00 0.00 0.00 95 1013.5
20260510092210 11 74 0.0 0.0 0.00 0.00 0.00 95 1013.2
20260510091709 11 73 0.0 1.6 0.00 0.00 0.00 95 1013.5
20260510091136 11 74 0.0 1.6 0.00 0.00 0.00 95 1013.5
20260510090634 12 73 0.0 3.2 0.00 0.00 0.00 95 1013.2
20260510090100 12 73 1.6 3.2 0.00 0.00 0.00 95 1013.2
20260510085559 12 72 1.6 4.8 0.00 0.00 0.00 95 1013.2
20260510085057 11 104 1.6 4.8 0.00 0.00 0.00 95 1013.2
20260510084556 11 93 3.2 3.2 0.00 0.00 0.00 95 1012.9
20260510084054 11 105 0.0 1.6 0.00 0.00 0.00 95 1012.9
20260510083553 11 105 0.0 1.6 0.00 0.00 0.00 95 1012.9
20260510083052 11 105 0.0 1.6 0.00 0.00 0.00 95 1012.9
20260510082551 11 106 0.0 1.6 0.00 0.00 0.00 95 1012.5
20260510082049 11 118 0.0 0.0 0.00 0.00 0.00 95 1012.5
20260510081548 11 118 0.0 0.0 0.00 0.00 0.00 95 1012.5
20260510081015 11 118 0.0 0.0 0.00 0.00 0.00 95 1012.5
20260510080513 11 118 0.0 0.0 0.00 0.00 0.00 95 1012.5
20260510080011 11 118 0.0 0.0 0.00 0.00 0.00 95 1012.5
20260510075510 11 118 0.0 0.0 0.00 0.00 0.00 95 1012.2
20260510075008 12 118 0.0 0.0 0.00 0.00 0.00 95 1012.2
20260510074507 12 118 0.0 0.0 0.00 0.00 0.00 95 1012.2
20260510074005 12 118 0.0 0.0 0.00 0.00 0.00 95 1012.2
20260510073502 12 119 0.0 0.0 0.00 0.00 0.00 95 1012.2
20260510073001 12 119 0.0 0.0 0.00 0.00 0.00 95 1012.2
20260510072459 12 118 0.0 0.0 0.00 0.00 0.00 95 1012.2
20260510071957 12 118 0.0 0.0 0.00 0.00 0.00 95 1012.2
20260510071456 12 119 0.0 0.0 0.00 0.00 0.00 95 1012.2
20260510070953 12 118 0.0 0.0 0.00 0.00 0.00 95 1012.2
20260510070452 12 118 0.0 0.0 0.00 0.00 0.00 95 1012.2
20260510065918 12 118 0.0 0.0 0.00 0.00 0.00 95 1012.2
20260510065416 12 118 0.0 0.0 0.00 0.00 0.00 95 1012.2
20260510064913 12 119 0.0 0.0 0.00 0.00 0.00 95 1012.2
20260510064412 12 119 0.0 0.0 0.00 0.00 0.00 95 1012.2
20260510063911 12 118 0.0 0.0 0.00 0.00 0.00 95 1012.2
20260510063409 12 119 0.0 0.0 0.00 0.00 0.00 95 1012.2
20260510062907 12 119 0.0 1.6 0.00 0.00 0.00 95 1012.2
20260510062406 12 119 0.0 1.6 0.00 0.00 0.00 95 1012.2
20260510061905 12 118 0.0 1.6 0.00 0.00 0.00 95 1012.2
20260510061402 12 118 0.0 1.6 0.00 0.00 0.00 95 1012.2
20260510060828 12 119 0.0 0.0 0.00 0.00 0.00 95 1012.2
20260510060254 12 118 0.0 0.0 0.00 0.00 0.00 95 1012.2
20260510055753 12 118 0.0 0.0 0.00 0.00 0.00 95 1012.2
20260510055251 12 118 0.0 0.0 0.00 0.00 0.00 95 1012.2
20260510054749 13 118 0.0 0.0 0.00 0.00 0.00 95 1012.2
20260510054248 13 119 0.0 0.0 0.00 0.00 0.00 95 1012.2
20260510053612 13 118 0.0 0.0 0.00 0.00 0.00 95 1012.2
20260510053109 13 119 0.0 0.0 0.00 0.00 0.00 95 1012.5
20260510052536 13 118 0.0 0.0 0.00 0.00 0.00 95 1012.5
20260510052033 13 119 0.0 0.0 0.00 0.00 0.00 95 1012.5
20260510051531 13 119 0.0 1.6 0.00 0.00 0.00 95 1012.5
20260510051030 13 118 0.0 1.6 0.00 0.00 0.00 95 1012.5
20260510050527 13 119 0.0 1.6 0.00 0.00 0.00 95 1012.2
20260510050026 13 118 0.0 1.6 0.00 0.00 0.00 95 1012.2
20260510045524 13 118 0.0 1.6 0.00 0.00 0.00 95 1012.5
20260510045023 13 119 0.0 0.0 0.00 0.00 0.00 95 1012.5
20260510044521 13 119 0.0 0.0 0.00 0.00 0.00 95 1012.2
20260510044020 13 118 0.0 0.0 0.00 0.00 0.00 95 1012.2
20260510043519 13 118 0.0 0.0 0.00 0.00 0.00 94 1012.2
20260510042946 13 119 0.0 0.0 0.00 0.00 0.00 94 1012.2
20260510042443 13 119 0.0 0.0 0.00 0.00 0.00 94 1012.2
20260510041942 13 119 0.0 0.0 0.00 0.00 0.00 94 1012.2
20260510041439 13 118 0.0 0.0 0.00 0.00 0.00 94 1012.2
20260510040938 13 118 0.0 0.0 0.00 0.00 0.00 94 1012.2
20260510040435 13 118 0.0 0.0 0.00 0.00 0.00 93 1012.2
20260510035830 13 118 0.0 0.0 0.00 0.00 0.00 93 1012.2
20260510035328 13 118 0.0 0.0 0.00 0.00 0.00 93 1012.2
20260510034827 13 118 0.0 0.0 0.00 0.00 0.00 93 1012.2
20260510034326 13 119 0.0 0.0 0.00 0.00 0.00 93 1012.2
20260510033824 13 118 0.0 0.0 0.00 0.00 0.00 93 1011.9
20260510033221 13 118 0.0 0.0 0.00 0.00 0.00 93 1011.9
20260510032720 14 118 0.0 0.0 0.00 0.00 0.00 92 1011.9
20260510032218 14 118 0.0 0.0 0.00 0.00 0.00 92 1012.2
20260510031717 14 118 0.0 0.0 0.00 0.00 0.00 92 1011.9
20260510031215 14 118 0.0 0.0 0.00 0.00 0.00 91 1011.9
20260510030714 14 118 0.0 0.0 0.00 0.00 0.00 91 1011.9
20260510030141 14 118 0.0 0.0 0.00 0.00 0.00 91 1011.9
20260510025608 14 119 0.0 0.0 0.00 0.00 0.00 91 1011.9
20260510025107 15 119 0.0 0.0 0.00 0.00 0.00 90 1011.5
20260510024606 15 118 0.0 0.0 0.00 0.00 0.00 90 1011.5
20260510024032 15 118 0.0 0.0 0.00 0.00 0.00 89 1011.9
20260510023459 15 119 0.0 0.0 0.00 0.00 0.00 89 1011.5
20260510022956 15 119 0.0 0.0 0.00 0.00 0.00 88 1011.5
20260510022453 15 119 0.0 0.0 0.00 0.00 0.00 88 1011.5
20260510021920 15 119 0.0 1.6 0.00 0.00 0.00 88 1011.5
20260510021418 15 118 0.0 1.6 0.00 0.00 0.00 88 1011.5
20260510020916 15 119 0.0 1.6 0.00 0.00 0.00 88 1011.5
20260510020415 15 119 1.6 1.6 0.00 0.00 0.00 88 1011.2
20260510015913 15 118 0.0 0.0 0.00 0.00 0.00 88 1011.2
20260510015411 15 119 0.0 1.6 0.00 0.00 0.00 88 1011.2
20260510014838 16 119 0.0 1.6 0.00 0.00 0.00 88 1010.8
20260510014305 16 118 0.0 1.6 0.00 0.00 0.00 87 1010.8
20260510013733 16 119 1.6 1.6 0.00 0.00 0.00 87 1010.8
20260510013230 16 118 0.0 1.6 0.00 0.00 0.00 87 1010.5
20260510012727 16 131 0.0 0.0 0.00 0.00 0.00 86 1010.5
20260510012225 16 131 0.0 0.0 0.00 0.00 0.00 86 1010.5
20260510011726 16 131 0.0 0.0 0.00 0.00 0.00 86 1010.5
20260510011222 16 131 0.0 0.0 0.00 0.00 0.00 85 1010.2
20260510010721 17 131 0.0 0.0 0.00 0.00 0.00 84 1010.2
20260510010148 17 131 0.0 0.0 0.00 0.00 0.00 83 1010.2
20260510005647 17 131 0.0 0.0 0.00 0.00 0.00 83 1010.2
20260510005146 17 131 0.0 0.0 0.00 0.00 0.00 83 1009.8
20260510004645 17 131 0.0 0.0 0.00 0.00 0.00 82 1009.8
20260510004143 18 131 0.0 0.0 0.00 0.00 0.00 82 1009.8
20260510003611 18 131 0.0 0.0 0.00 0.00 0.00 81 1009.8
20260510003107 18 131 0.0 0.0 0.00 0.00 0.00 80 1009.8
20260510002604 18 131 0.0 0.0 0.00 0.00 0.00 80 1009.8
20260510002031 19 131 0.0 0.0 0.00 0.00 0.00 80 1009.8
20260510001529 19 131 0.0 0.0 0.00 0.00 0.00 79 1009.5
20260510001028 20 131 0.0 1.6 0.00 0.00 0.00 79 1009.5
20260510000526 20 131 0.0 1.6 0.00 0.00 0.00 77 1009.5
20260510000025 20 131 0.0 1.6 0.00 0.00 0.00 76 1009.5
20260509235522 21 131 0.0 1.6 0.00 0.00 0.00 75 1009.5
20260509235021 21 133 0.0 0.0 0.00 0.00 0.00 75 1009.5
20260509234520 21 133 0.0 0.0 0.00 0.00 0.00 74 1009.1
20260509234019 21 133 0.0 0.0 0.00 0.00 0.00 74 1009.1
20260509233517 22 132 0.0 0.0 0.00 0.00 0.00 72 1009.1
20260509233015 22 133 0.0 0.0 0.00 0.00 0.00 71 1009.1
20260509232441 22 133 0.0 0.0 0.00 0.00 0.00 68 1008.8
20260509231939 22 132 0.0 0.0 0.00 0.00 0.00 68 1009.1
20260509231438 22 132 0.0 0.0 0.00 0.00 0.00 67 1009.1
20260509230936 22 132 0.0 0.0 0.00 0.00 0.00 67 1009.1
20260509230435 22 133 0.0 0.0 0.00 0.00 0.00 66 1009.1
20260509225933 23 103 0.0 0.0 0.00 0.00 0.00 63 1008.8
20260509225431 23 160 0.0 0.0 0.00 0.00 0.00 61 1008.8
20260509224930 23 160 0.0 1.6 0.00 0.00 0.00 64 1008.8
20260509224428 23 160 0.0 1.6 0.00 0.00 0.00 64 1008.8
20260509223927 23 160 0.0 3.2 0.00 0.00 0.00 61 1008.8
20260509223426 23 162 1.6 3.2 0.00 0.00 0.00 61 1008.8
20260509222924 23 139 1.6 3.2 0.00 0.00 0.00 59 1008.8
20260509222422 23 157 3.2 3.2 0.00 0.00 0.00 62 1008.8
20260509221919 23 114 0.0 1.6 0.00 0.00 0.00 62 1008.5
20260509221417 23 116 1.6 1.6 0.00 0.00 0.00 59 1008.5
20260509220916 24 264 1.6 4.8 0.00 0.00 0.00 60 1008.5
20260509220414 24 264 0.0 4.8 0.00 0.00 0.00 61 1008.8
20260509215913 24 264 1.6 6.4 0.00 0.00 0.00 59 1008.8
20260509215411 24 332 0.0 6.4 0.00 0.00 0.00 63 1008.8
20260509214839 24 58 1.6 3.2 0.00 0.00 0.00 61 1008.8
20260509214337 25 11 1.6 3.2 0.00 0.00 0.00 60 1008.8
20260509213835 25 15 0.0 3.2 0.00 0.00 0.00 58 1008.8
20260509213333 25 103 1.6 3.2 0.00 0.00 0.00 57 1008.8
20260509212832 25 255 1.6 3.2 0.00 0.00 0.00 55 1008.8
20260509212228 25 264 1.6 3.2 0.00 0.00 0.00 54 1008.8
20260509211653 25 65 1.6 4.8 0.00 0.00 0.00 53 1008.5
20260509211119 25 111 1.6 4.8 0.00 0.00 0.00 54 1008.5
20260509210617 26 79 3.2 4.8 0.00 0.00 0.00 55 1008.5
20260509210115 26 41 1.6 4.8 0.00 0.00 0.00 55 1008.5
20260509205614 26 205 0.0 4.8 0.00 0.00 0.00 58 1008.5
20260509205112 26 229 1.6 4.8 0.00 0.00 0.00 55 1008.5
20260509204610 26 280 1.6 6.4 0.00 0.00 0.00 57 1008.1
20260509204109 26 227 1.6 9.7 0.00 0.00 0.00 53 1008.1
20260509203536 26 269 0.0 9.7 0.00 0.00 0.00 54 1008.1
20260509203034 26 222 1.6 9.7 0.00 0.00 0.00 54 1008.5
20260509202502 26 176 3.2 9.7 0.00 0.00 0.00 54 1008.8
20260509201857 26 186 3.2 8.0 0.00 0.00 0.00 54 1008.8
20260509201356 25 168 3.2 8.0 0.00 0.00 0.00 55 1008.8
20260509200854 25 183 3.2 8.0 0.00 0.00 0.00 56 1008.8
20260509200353 25 224 3.2 6.4 0.00 0.00 0.00 57 1008.8
20260509195852 25 134 1.6 6.4 0.00 0.00 0.00 55 1008.8
20260509195351 25 300 1.6 6.4 0.00 0.00 0.00 54 1009.1
20260509194850 26 302 1.6 6.4 0.00 0.00 0.00 54 1009.1
20260509194348 25 301 1.6 6.4 0.00 0.00 0.00 55 1009.1
20260509193847 25 197 1.6 6.4 0.00 0.00 0.00 54 1009.1
20260509193345 25 278 1.6 6.4 0.00 0.00 0.00 56 1009.1
20260509192844 25 180 3.2 6.4 0.00 0.00 0.00 56 1009.1
20260509192342 25 274 3.2 6.4 0.00 0.00 0.00 54 1009.1
20260509191738 25 281 1.6 4.8 0.00 0.00 0.00 56 1009.1
20260509191205 25 326 1.6 6.4 0.00 0.00 0.00 59 1009.1
20260509190704 25 72 0.0 6.4 0.00 0.00 0.00 58 1009.5
20260509190202 25 98 1.6 6.4 0.00 0.00 0.00 57 1009.5
20260509185701 24 172 3.2 6.4 0.00 0.00 0.00 58 1009.5
20260509185127 24 190 3.2 14.5 0.00 0.00 0.00 61 1009.5
20260509184626 24 197 1.6 14.5 0.00 0.00 0.00 61 1009.1
20260509184123 24 311 1.6 14.5 0.00 0.00 0.00 61 1009.5
20260509183618 24 208 3.2 14.5 0.00 0.00 0.00 59 1009.5
20260509183117 24 235 6.4 12.9 0.00 0.00 0.00 58 1009.1
20260509182615 24 255 1.6 14.5 0.00 0.00 0.00 60 1009.1
20260509182042 23 312 3.2 16.1 0.00 0.00 0.00 62 1009.1
20260509181539 23 225 4.8 16.1 0.00 0.00 0.00 59 1009.1
20260509181038 23 227 3.2 6.4 0.00 0.00 0.00 61 1009.1
20260509180536 23 206 1.6 6.4 0.00 0.00 0.00 63 1009.5
20260509180035 23 75 1.6 6.4 0.00 0.00 0.00 59 1009.5
20260509175501 23 89 3.2 8.0 0.00 0.00 0.00 62 1009.5
20260509174959 23 65 3.2 8.0 0.00 0.00 0.00 61 1009.5
20260509174458 23 131 3.2 8.0 0.00 0.00 0.00 60 1009.5
20260509173925 23 184 4.8 8.0 0.00 0.00 0.00 61 1009.5
20260509173423 22 301 1.6 9.7 0.00 0.00 0.00 64 1009.8
20260509172921 22 325 1.6 12.9 0.00 0.00 0.00 62 1009.5
20260509172419 22 11 1.6 12.9 0.00 0.00 0.00 63 1009.5
20260509171845 22 245 4.8 14.5 0.00 0.00 0.00 62 1009.8
20260509171344 22 232 4.8 14.5 0.00 0.00 0.00 62 1009.8
20260509170841 22 203 3.2 14.5 0.00 0.00 0.00 62 1009.8
20260509170339 22 207 6.4 14.5 0.00 0.00 0.00 62 1009.8
20260509165837 22 68 1.6 16.1 0.00 0.00 0.00 66 1009.8
20260509165336 22 262 4.8 16.1 0.00 0.00 0.00 62 1010.2
20260509164803 22 171 3.2 12.9 0.00 0.00 0.00 64 1010.2
20260509164230 21 317 1.6 11.3 0.00 0.00 0.00 70 1010.2
20260509163728 21 166 3.2 11.3 0.00 0.00 0.00 68 1010.2
20260509163155 21 56 4.8 11.3 0.00 0.00 0.00 65 1010.5
20260509162623 21 235 4.8 11.3 0.00 0.00 0.00 65 1010.2
20260509162122 21 197 3.2 11.3 0.00 0.00 0.00 65 1010.5
20260509161445 21 230 6.4 11.3 0.00 0.00 0.00 66 1010.5
20260509160944 21 295 1.6 9.7 0.00 0.00 0.00 67 1010.5
20260509160443 21 213 3.2 9.7 0.00 0.00 0.00 68 1010.5
20260509155941 20 286 3.2 11.3 0.00 0.00 0.00 69 1010.5
20260509155408 20 197 3.2 11.3 0.00 0.00 0.00 71 1010.5
20260509154835 20 224 1.6 11.3 0.00 0.00 0.00 70 1010.5
20260509154300 20 248 4.8 11.3 0.00 0.00 0.00 71 1010.5
20260509153759 20 221 4.8 11.3 0.00 0.00 0.00 72 1010.5
20260509153257 19 226 3.2 6.4 0.00 0.00 0.00 75 1010.5
20260509152755 19 226 3.2 8.0 0.00 0.00 0.00 73 1010.5
20260509152253 19 233 1.6 9.7 0.00 0.00 0.00 74 1010.5
20260509151752 19 175 1.6 9.7 0.00 0.00 0.00 74 1010.5
20260509151250 18 91 3.2 11.3 0.00 0.00 0.00 75 1010.5
20260509150749 18 233 6.4 12.9 0.00 0.00 0.00 73 1010.5
20260509150248 18 143 3.2 14.5 0.00 0.00 0.00 74 1010.5
20260509145745 18 244 4.8 14.5 0.00 0.00 0.00 77 1010.8
20260509145244 18 213 3.2 9.7 0.00 0.00 0.00 75 1010.8
20260509144743 18 127 3.2 9.7 0.00 0.00 0.00 75 1010.8
20260509144241 18 89 3.2 11.3 0.00 0.00 0.00 76 1010.5
20260509143739 18 261 1.6 11.3 0.00 0.00 0.00 76 1010.5
20260509143236 18 234 3.2 8.0 0.00 0.00 0.00 76 1010.5
20260509142733 18 213 3.2 8.0 0.00 0.00 0.00 76 1010.5
20260509142232 18 255 3.2 8.0 0.00 0.00 0.00 76 1010.5
20260509141731 18 207 4.8 9.7 0.00 0.00 0.00 74 1010.5
20260509141229 17 200 3.2 9.7 0.00 0.00 0.00 78 1010.5
20260509140727 17 218 3.2 9.7 0.00 0.00 0.00 79 1010.5
20260509140226 17 223 3.2 11.3 0.00 0.00 0.00 79 1010.5
20260509135725 17 233 3.2 11.3 0.00 0.00 0.00 79 1010.5
20260509135224 17 238 4.8 9.7 0.00 0.00 0.00 80 1010.2
20260509134721 17 223 4.8 9.7 0.00 0.00 0.00 80 1010.2
20260509134220 17 214 4.8 11.3 0.00 0.00 0.00 80 1010.2
20260509133717 16 219 3.2 11.3 0.00 0.00 0.00 81 1010.2
20260509133216 16 201 3.2 9.7 0.00 0.00 0.00 83 1010.2
20260509132715 16 230 3.2 4.8 0.00 0.00 0.00 84 1010.2
20260509132212 15 193 1.6 6.4 0.00 0.00 0.00 88 1010.2
20260509131709 15 94 3.2 6.4 0.00 0.00 0.00 89 1010.2
20260509131208 14 252 3.2 4.8 0.00 0.00 0.00 91 1010.2
20260509130705 13 259 1.6 1.6 0.00 0.00 0.00 92 1010.5
20260509130203 13 262 1.6 1.6 0.00 0.00 0.00 93 1010.8
20260509125702 13 167 0.0 1.6 0.00 0.00 0.00 94 1010.8
20260509125200 12 195 0.0 1.6 0.00 0.00 0.00 94 1011.2
20260509124659 12 194 0.0 1.6 0.00 0.00 0.00 95 1010.8
20260509124125 12 196 0.0 1.6 0.00 0.00 0.00 95 1010.8
20260509123550 12 131 0.0 1.6 0.00 0.00 0.00 95 1010.8
20260509123049 12 131 0.0 1.6 0.00 0.00 0.00 95 1010.5
20260509122548 12 131 0.0 0.0 0.00 0.00 0.00 95 1010.8
20260509122045 12 131 0.0 0.0 0.00 0.00 0.00 95 1010.8
20260509121544 12 131 0.0 0.0 0.00 0.00 0.00 95 1010.8
20260509121042 11 131 0.0 0.0 0.00 0.00 0.00 95 1010.8
20260509120541 11 131 0.0 0.0 0.00 0.00 0.00 95 1010.8
20260509120040 11 131 0.0 1.6 0.00 0.00 0.00 95 1010.8
20260509115538 11 131 0.0 1.6 0.00 0.00 0.00 95 1011.2
20260509115037 11 131 0.0 1.6 0.00 0.00 0.00 95 1010.8
20260509114535 11 131 1.6 1.6 0.00 0.00 0.00 95 1010.8
20260509114034 11 131 0.0 1.6 0.00 0.00 0.00 95 1010.8
20260509113501 11 131 0.0 0.0 0.00 0.00 0.00 95 1010.5
20260509113000 11 131 0.0 0.0 0.00 0.00 0.00 95 1010.5
20260509112458 11 131 0.0 0.0 0.00 0.00 0.00 95 1010.5
20260509111956 11 131 0.0 0.0 0.00 0.00 0.00 95 1010.5
20260509111454 11 131 0.0 0.0 0.00 0.00 0.00 95 1010.2
20260509110953 11 131 0.0 0.0 0.00 0.00 0.00 95 1010.2
20260509110452 11 131 0.0 0.0 0.00 0.00 0.00 95 1010.2
20260509105848 11 131 0.0 0.0 0.00 0.00 0.00 95 1010.2
20260509105345 11 131 0.0 0.0 0.00 0.00 0.00 95 1010.2
20260509104844 11 131 0.0 0.0 0.00 0.00 0.00 95 1010.2
20260509104311 11 131 0.0 1.6 0.00 0.00 0.00 95 1010.2
20260509103738 11 131 0.0 1.6 0.00 0.00 0.00 95 1010.2
20260509103235 11 131 0.0 1.6 0.00 0.00 0.00 95 1010.5
20260509102702 11 158 0.0 0.0 0.00 0.00 0.00 95 1010.5
20260509102200 11 158 0.0 0.0 0.00 0.00 0.00 95 1010.5
20260509101628 10 158 0.0 0.0 0.00 0.00 0.00 95 1010.5
20260509101127 10 158 0.0 0.0 0.00 0.00 0.00 95 1010.8
20260509100625 10 158 0.0 0.0 0.00 0.00 0.00 95 1010.8
20260509100124 10 158 0.0 1.6 0.00 0.00 0.00 95 1010.8
20260509095552 10 158 0.0 1.6 0.00 0.00 0.00 95 1010.5
20260509095050 10 158 0.0 1.6 0.00 0.00 0.00 95 1010.5
20260509094549 10 158 0.0 1.6 0.00 0.00 0.00 95 1010.5
20260509094047 10 158 0.0 1.6 0.00 0.00 0.00 95 1010.5
20260509093546 10 158 0.0 0.0 0.00 0.00 0.00 95 1010.8